Probability
0 0 0 0 0 0 0 0 0 0 0 0 0 0 0 0 0 0 0 0 0 0 0 0 0 0 0 0 0 0 0 0 0 0 0 0 0 0 0 0 0 0 0 0 0 0 0 0 0
0 0 0 0 0 0 0 0 0 0 0 0 0 0 0 0 0 0 0 0 0 0 0 0 0 0 0 0 0 0 0 0 0 0 0 0 0 0 0 0 0 0 0 0 0 0 0 0 0
0 0 0 0 0 0 0 0 0 0 0 0 0 0 0 0 0 0 0 0 0 0 0 0 0 0 0 0 0 0 0 0 0 0 0 0 0 0 0 0 0 0 0 0 0 0 0 0 0
0 0 0 0 0 0 0 0 0 0 0 0 0 0 0 0 0 0 0 0 0 0 0 0 0 0 0 0 0 0 0 0 0 0 0 0 0 0 0 0 0 0 0 0 0 0 0 0 0
0 0 0 0 0 0 0 0 0 0 0 0 0 0 0 0 0 0 0 0 0 0 0 0 0 0 0 0 0 0 0 0 0 0 0 0 0 0 0 0 0 0 0 0 0 0 0 0 0
0 0 0 0 0 0 0 0 0 0 0 0 0 0 0 0 0 0 0 0 0 0 0 0 0 0 0 0 0 0 0 0 0 0 0 0 0 0 0 0 0 0 0 0 0 0 0 0 0
0 0 0 0 0 0 0 0 0 0 0 0 0 0 0 0 0 0 0 0 0 0 0 0 0 0 0 0 0 0 0 0 0 0 0 0 0 0 0 0 0 0 0 0 0 0 0 0 0
0 0 0 0 0 0 0 0 0 0 0 0 0 0 0 0 0 0 0 0 0 0 0 0 0 0 0 0 0 0 0 0 0 0 0 0 0 0 0 0 0 0 0 0 0 0 0 0 0
0 0 0 0 0 0 0 0 0 0 0 0 0 0 0 0 0 0 0 0 0 0 0 0 0 0 0 0 0 0 0 0 0 0 0 0 0 0 0 0 0 0 0 0 0 0 0 0 0
0 0 0 0 0 0 0 0 0 0 0 0 0 0 0 0 0 0 0 0 0 0 0 0 0 0 0 0 0 0 0 0 0 0 0 0 0 0 0 0 0 0 0 0 0 0 0 0 0
0 0 0 0 0 0 0 0 0 0 0 0 0 0 0 0 0 0 0 0 0 0 0 0 0 0 0 0 0 0 0 0 0 0 0 0 0 0 0 0 0 0 0 0 0 0 0 0 0
0 0 0 0 0 0 0 0 0 0 0 0 0 0 0 0 0 0 0 0 0 0 0 0 0 0 0 0 0 0 0 0 0 0 0 0 0 0 0 0 0 0 0 0 0 0 0 0 0
0 0 0 0 0 0 0 0 0 0 0 0 0 0 0 0 0 0 0 0 0 0 0 0 0 0 0 0 0 0 0 0 0 0 0 0 0 0 0 0 0 0 0 0 0 0 0 0 0
0 0 0 0 0 0 0 0 0 0 0 0 0 0 0 0 0 0 0 0 0 0 0 0 0 0 0 0 0 0 0 0 0 0 0 0 0 0 0 0 0 0 0 0 0 0 0 0 0
0 0 0 0 0 0 0 0 0 0 0 0 0 0 0 0 0 0 0 0 0 0 0 0 0 0 0 0 0 0 0 0 0 0 0 0 0 0 0 0 0 0 0 0 0 0 0 0 0
0 0 0 0 0 0 0 0 0 0 0 0 0 0 0 0 0 0 0 0 0 0 0 0 0 0 0 0 0 0 0 0 0 0 0 0 0 0 0 0 0 0 0 0 0 0 0 0 0
0 0 0 0 0 0 0 0 0 0 0 0 0 0 0 0 0 0 0 0 0 0 0 0 0 0 0 0 0 0 0 0 0 0 0 0 0 0 0 0 0 0 0 0 0 0 0 0 0
0 0 0 0 0 0 0 0 0 0 0 0 0 0 0 0 0 0 0 0 0 0 0 0 0 0 0 0 0 0 0 0 0 0 0 0 0 0 0 0 0 0 0 0 0 0 0 0 0
0 0 0 0 0 0 0 0 0 0 0 0 0 0 0 0 0 0 0 0 0 0 0 0 0 0 0 0 0 0 0 0 0 0 0 0 0 0 0 0 0 0 0 0 0 0 0 0 0
0 0 0 0 0 0 0 0 0 0 0 0 0 0 0 0 0 0 0 0 0 0 0 0 0 0 0 0 0 0 0 0 0 0 0 0 0 0 0 0 0 0 0 0 0 0 0 0 0
0 0 0 0 0 0 0 0 0 0 0 0 0 0 0 0 0 0 0 0 0 0 0 0 0 0 0 0 0 0 0 0 0 0 0 0 0 0 0 0 0 0 0 0 0 0 0 0 0
0 0 0 0 0 0 0 0 0 0 0 0 0 0 0 0 0 0 0 0 0 0 0 0 0 0 0 0 0 0 0 0 0 0 0 0 0 0 0 0 0 0 0 0 0 0 0 0 0
0 0 0 0 0 0 0 0 0 0 0 0 0 0 0 0 0 0 0 0 0 0 0 0 0 0 0 0 0 0 0 0 0 0 0 0 0 0 0 0 0 0 0 0 0 0 0 0 0
0 0 0 0 0 0 0 0 0 0 0 0 0 0 0 0 0 0 0 0 0 0 0 0 0 0 0 0 0 0 0 0 0 0 0 0 0 0 0 0 0 0 0 0 0 0 0 0 0
0 0 0 0 0 0 0 0 0 0 0 0 0 0 0 0 0 0 0 0 0 0 0 0 0 0 0 0 0 0 0 0 0 0 0 0 0 0 0 0 0 0 0 0 0 0 0 0 0
0 0 0 0 0 0 0 0 0 0 0 0 0 0 0 0 0 0 0 0 0 0 0 0 0 0 0 0 0 0 0 0 0 0 0 0 0 0 0 0 0 0 0 0 0 0 0 0 0
0 0 0 0 0 0 0 0 0 0 0 0 0 0 0 0 0 0 0 0 0 0 0 0 0 0 0 0 0 0 0 0 0 0 0 0 0 0 0 0 0 0 0 0 0 0 0 0 0
0 0 0 0 0 0 0 0 0 0 0 0 0 0 0 0 0 0 0 0 0 0 0 0 0 0 0 0 0 0 0 0 0 0 0 0 0 0 0 0 0 0 0 0 0 0 0 0 0
0 0 0 0 0 0 0 0 0 0 0 0 0 0 0 0 0 0 0 0 0 0 0 0 0 0 0 0 0 0 0 0 0 0 0 0 0 0 0 0 0 0 0 0 0 0 0 0 0
0 0 0 0 0 0 0 0 0 0 0 0 0 0 0 0 0 0 0 0 0 0 0 0 0 0 0 0 0 0 0 0 0 0 0 0 0 0 0 0 0 0 0 0 0 0 0 0 0
Wind_Speed
11 7 3 2 2 1 3 3 2 3 3 2 1 2 2 1 2 4 6 8 10 11 10 11 9 11 13 13 12 12 13 13 13 13 12 12 12 12 12 12 13 14 14 14 14 14 15 14 14
9 6 2 1 2 2 3 3 4 3 3 4 3 2 2 2 3 5 7 8 11 11 10 10 10 11 12 12 12 12 13 13 13 12 12 12 12 12 12 12 12 13 13 14 14 14 14 14 14
6 4 2 0 1 1 3 4 4 4 4 2 2 0 1 2 3 6 6 11 11 10 10 11 10 12 12 12 12 12 13 13 12 12 12 12 11 11 11 11 11 12 13 13 13 13 13 13 13
4 1 1 1 1 1 1 2 4 7 5 2 2 3 2 2 3 5 9 11 11 10 10 11 10 12 12 12 12 12 12 13 12 12 11 11 11 11 10 10 10 11 12 12 12 12 12 12 12
2 2 1 1 1 1 1 1 6 6 5 3 3 2 4 4 3 7 11 12 11 10 9 11 9 10 11 11 12 12 12 13 12 12 12 11 11 10 10 10 10 10 11 11 11 11 11 11 11
1 1 3 4 2 1 1 3 6 5 4 3 4 3 4 4 5 8 11 11 11 10 10 10 9 9 10 10 10 10 11 12 12 12 12 11 11 10 10 9 9 9 10 10 10 10 10 10 10
1 2 4 4 3 3 2 4 5 5 5 4 3 3 4 6 6 9 10 10 9 10 9 9 11 10 9 9 9 9 10 10 11 11 11 10 9 9 8 8 8 9 9 9 9 9 9 9 9
1 2 4 4 5 4 3 4 2 4 3 2 4 4 3 7 9 9 9 9 9 9 9 9 10 10 10 10 9 9 9 9 10 10 9 9 8 8 6 6 7 8 8 9 9 8 8 8 8
2 5 7 6 5 3 4 4 3 1 2 3 3 2 4 9 11 10 8 8 9 9 9 9 9 9 9 9 9 9 9 9 10 9 10 8 7 8 6 6 6 7 7 8 8 8 7 7 7
4 7 8 4 4 3 4 4 4 5 5 5 5 4 4 11 13 13 13 13 12 12 10 9 10 10 9 7 8 7 8 8 8 8 9 6 6 5 5 6 5 6 6 6 7 7 6 4 4
6 8 5 5 5 3 4 4 4 6 8 8 7 7 9 12 13 14 14 14 13 12 11 10 10 10 9 7 7 5 5 6 7 8 8 6 5 5 5 4 5 6 6 6 6 6 4 3 2
6 6 5 4 4 4 5 4 6 9 8 2 4 5 11 14 16 17 16 14 13 13 13 12 11 10 10 8 7 6 5 5 6 7 8 6 5 5 5 4 5 5 4 5 5 4 4 4 3
9 6 5 4 4 5 4 7 7 10 10 5 3 7 12 15 16 15 14 13 13 14 14 13 13 12 11 9 7 7 7 7 7 7 8 8 6 6 6 5 5 5 5 5 5 5 5 5 4
7 7 5 5 7 4 7 9 8 11 7 8 8 10 12 14 15 14 15 15 16 15 15 14 14 14 12 10 9 8 7 7 7 7 9 10 7 6 6 6 6 6 6 5 5 6 5 4 4
4 6 8 7 7 5 5 13 15 13 8 10 11 11 12 13 13 16 17 17 16 16 15 15 15 15 14 13 12 8 8 8 8 8 9 10 9 8 7 6 6 6 6 6 5 6 5 5 5
5 8 11 9 9 7 9 18 14 10 11 14 13 12 12 13 15 15 15 16 16 15 16 16 13 15 15 14 12 9 9 9 8 8 9 11 11 10 8 7 7 7 6 6 6 6 6 6 6
9 13 15 11 9 9 13 16 11 7 11 15 15 14 13 13 15 16 16 16 16 16 16 16 16 16 16 15 12 11 9 10 9 9 9 11 12 12 10 8 7 8 7 7 6 7 6 7 6
12 14 13 15 8 11 15 19 15 9 10 15 15 15 14 15 17 15 15 16 16 16 16 17 17 17 15 12 10 9 10 10 9 9 10 12 11 13 11 8 10 9 7 8 8 8 7 7 6
12 14 15 12 6 10 16 20 20 16 14 17 17 17 17 18 17 14 14 14 14 16 17 18 18 17 14 11 11 11 11 10 10 10 12 14 13 13 12 9 10 10 9 10 10 9 10 8 6
12 15 16 9 5 8 13 21 21 20 20 20 21 20 19 18 17 15 14 14 16 17 18 19 19 18 18 14 13 10 11 10 11 10 12 14 14 14 12 13 11 11 10 12 11 11 8 7 7
18 18 16 11 3 7 10 20 22 21 19 20 20 21 21 20 20 18 17 17 16 17 19 17 20 20 20 18 12 9 9 8 10 12 12 15 16 15 14 15 13 12 12 11 12 12 13 9 9
18 16 14 12 9 8 9 15 19 16 17 18 19 19 21 21 20 20 18 17 18 18 17 18 19 20 20 19 16 17 14 14 16 13 12 14 16 16 16 15 15 14 12 13 12 13 12 12 10
9 8 12 13 13 12 11 13 15 11 17 17 17 18 20 20 20 19 19 18 17 16 15 16 18 19 19 20 20 19 18 16 12 13 14 14 14 16 16 16 15 14 13 14 14 13 13 11 12
7 5 6 8 9 15 20 17 17 14 17 15 14 15 17 17 17 18 17 15 15 14 13 15 16 18 18 20 21 22 22 19 17 16 14 13 11 12 17 16 15 15 13 14 14 13 15 13 13
13 9 6 9 10 13 12 16 17 14 15 16 16 15 14 14 14 14 15 14 13 14 14 14 16 18 18 20 21 22 22 22 21 18 16 14 12 12 15 15 15 14 15 14 13 13 14 15 15
20 18 12 10 10 8 8 17 15 9 11 13 14 14 13 13 12 13 13 12 12 12 12 13 15 17 17 18 20 20 21 16 15 18 15 14 12 13 14 15 15 16 15 14 14 12 13 12 14
15 17 14 7 3 6 10 12 13 7 11 13 14 14 15 14 13 11 11 11 10 10 11 12 13 15 15 17 18 18 19 18 17 17 16 14 13 11 14 14 15 16 16 15 14 12 14 13 13
14 11 8 10 10 14 15 18 15 9 13 14 15 16 15 13 11 10 9 9 8 8 8 9 11 13 13 14 14 13 16 17 17 15 16 15 15 14 14 14 15 15 15 15 14 13 13 14 13
16 16 12 9 8 9 12 14 8 12 12 13 13 12 11 10 10 9 8 7 7 6 6 7 8 10 10 12 13 14 14 15 15 15 15 15 14 14 14 14 14 14 14 14 14 14 13 15 14
18 19 19 13 11 10 11 15 4 8 8 8 8 8 8 9 8 8 7 6 6 6 6 6 7 8 9 9 10 11 12 12 13 13 13 13 13 13 13 13 13 13 13 14 14 15 14 14 14
Wind_Direction
327 333 300 268 223 125 109 121 148 149 144 93 112 222 247 340 343 55 100 142 141 143 142 143 136 133 131 129 128 126 123 118 115 114 113 111 108 106 105 104 102 101 100 98 96 94 92 90 87
333 326 297 307 257 197 132 150 172 137 98 120 133 182 199 110 54 97 140 150 149 145 147 143 134 134 133 132 130 129 127 122 120 119 117 116 114 112 111 109 106 105 104 102 100 98 95 93 90
330 340 344 309 253 285 124 155 156 115 133 163 150 191 328 72 121 145 145 152 152 148 147 136 139 138 138 137 134 133 130 127 125 124 122 121 119 117 115 112 109 108 106 104 103 102 99 96 94
322 320 332 253 141 42 34 141 153 149 163 198 209 162 128 61 132 147 148 157 155 151 151 143 144 142 142 142 141 139 136 134 132 129 126 124 122 121 119 116 112 110 108 107 105 105 103 99 95
341 318 234 195 179 96 283 170 173 174 174 173 212 188 136 117 134 146 156 162 159 155 155 150 147 145 146 147 146 145 143 140 137 134 130 128 127 126 125 123 118 114 112 111 110 109 106 102 98
348 287 247 227 198 181 194 177 184 195 179 169 206 198 132 122 155 158 162 167 164 160 160 154 146 146 148 149 148 149 147 143 141 138 135 133 133 133 132 131 126 122 120 118 116 114 112 108 102
288 255 251 239 220 208 166 172 206 203 203 186 197 203 142 158 164 162 166 168 168 166 167 165 163 159 152 149 147 146 144 143 143 141 137 133 133 134 132 135 136 133 130 125 122 119 116 112 107
323 224 214 219 227 219 154 175 230 227 215 122 200 229 131 153 153 158 164 170 173 176 179 175 174 172 168 163 150 145 142 142 139 134 130 126 125 127 126 146 143 142 139 134 131 126 120 115 111
218 230 230 219 221 215 164 191 161 235 168 177 214 283 53 136 151 159 167 177 182 187 188 186 181 180 176 170 158 156 147 142 142 139 135 147 158 155 157 152 144 145 144 143 141 133 122 120 116
206 233 235 219 221 218 184 212 185 193 208 208 207 190 145 156 169 177 185 189 191 193 194 194 191 185 182 172 171 173 170 165 174 167 166 173 169 165 165 129 128 128 134 146 142 132 142 178 152
206 234 229 214 215 229 214 215 197 220 231 229 224 191 168 177 186 193 198 198 198 196 196 199 198 192 188 181 181 179 178 177 183 181 179 177 175 170 179 166 157 160 166 172 158 173 187 190 182
213 222 219 214 195 210 228 218 211 227 244 270 257 191 177 189 197 202 204 203 200 200 201 200 200 198 196 191 187 186 186 186 188 187 188 186 186 189 188 191 186 185 189 190 194 196 194 197 197
219 219 220 228 209 224 233 236 246 243 244 249 232 192 198 201 205 208 210 209 206 206 204 203 202 202 199 197 194 195 195 197 195 191 193 198 197 196 194 195 197 200 199 199 203 205 200 207 209
222 222 226 227 224 222 236 250 244 250 240 231 224 219 215 213 211 209 210 212 211 211 208 204 205 205 202 201 201 200 199 200 203 200 200 202 206 203 199 200 202 206 207 209 211 212 213 218 220
187 220 236 230 223 222 232 250 238 245 233 235 235 233 228 225 220 217 214 214 214 213 210 208 207 207 206 207 207 205 203 201 206 206 205 205 209 208 206 207 207 208 208 209 215 216 223 227 227
188 219 236 221 213 208 221 253 246 234 231 242 242 239 235 231 227 227 223 220 217 214 211 209 206 208 209 209 209 208 207 205 209 209 207 208 209 210 209 212 213 208 207 210 214 217 222 226 231
203 224 233 227 208 205 221 254 256 232 231 244 245 242 240 239 235 231 227 224 220 215 212 210 209 210 210 210 211 212 210 210 212 211 211 210 210 210 212 215 215 207 209 214 216 222 227 232 236
207 220 229 229 204 210 229 248 252 241 239 248 251 249 246 244 242 236 229 226 223 219 215 214 211 213 211 209 212 213 215 215 215 214 214 212 210 210 213 216 215 210 212 215 215 222 225 237 241
227 222 229 235 214 218 241 252 257 253 248 251 252 251 249 249 251 246 236 226 222 220 217 215 213 212 208 206 208 210 214 213 215 217 216 215 213 210 212 215 215 212 216 218 218 220 225 228 229
224 230 235 240 216 231 257 260 261 257 252 250 252 252 252 253 251 245 238 229 222 220 217 216 215 213 209 209 209 212 214 217 217 215 218 218 215 213 212 215 215 212 217 221 220 218 224 226 212
223 228 229 229 220 234 272 268 256 250 247 248 249 251 253 252 251 248 239 232 226 224 220 216 215 214 212 211 210 208 213 217 215 216 216 216 216 215 214 216 217 216 216 219 218 216 221 224 216
228 223 228 227 233 245 232 270 262 253 248 243 244 245 247 247 247 248 245 238 230 227 224 221 219 215 213 209 209 208 210 216 219 218 218 215 214 216 215 217 218 218 217 222 220 218 221 225 226
222 202 214 225 234 249 233 256 265 249 252 248 242 242 243 244 245 246 245 243 239 232 226 223 221 219 214 210 210 212 218 223 224 220 220 218 213 215 216 216 218 219 220 222 222 219 220 222 227
178 167 202 219 228 242 235 239 263 240 246 250 244 241 245 247 247 248 249 247 245 238 227 223 222 222 217 212 212 214 218 220 221 220 219 217 216 214 216 216 217 220 221 222 222 222 222 223 227
192 187 202 209 215 237 221 228 251 245 239 242 249 251 251 250 250 251 251 248 244 238 230 224 223 224 218 215 215 216 219 221 222 222 222 219 217 216 215 212 216 219 222 223 222 221 224 224 227
200 204 212 219 222 227 200 232 250 243 241 245 250 255 259 258 254 253 254 253 250 244 234 227 225 226 221 217 218 218 219 221 224 224 223 221 220 221 218 213 216 219 221 221 222 222 224 225 227
198 212 222 237 251 256 232 246 261 239 245 243 245 248 251 253 254 255 257 256 252 247 239 232 230 229 225 221 219 220 220 221 223 224 224 225 224 223 219 215 216 219 220 220 220 223 224 224 227
209 195 189 206 217 236 244 245 245 218 225 233 241 245 249 254 258 261 262 262 259 253 248 240 234 233 230 226 223 222 222 222 225 226 225 224 224 221 220 219 218 220 220 220 221 224 226 226 228
193 199 202 204 215 230 247 248 238 234 225 230 239 246 256 263 268 271 273 272 269 262 253 245 238 236 233 229 226 224 225 224 224 226 228 228 227 225 222 221 220 220 221 220 221 224 225 228 231
211 208 205 210 215 225 248 259 200 214 225 231 248 259 266 271 277 279 281 277 270 263 255 249 242 236 234 230 227 226 225 223 223 225 227 227 228 226 224 222 220 221 222 221 222 225 226 229 231